Weather History for KPHD - March, 2013

Change the Weather History Date:

Saturday, March 23, 2013

  Actual Average Record
Temperature  
Mean Temperature 34 °F 42 °F  
Max Temperature 47 °F 54 °F 84 °F (2012)
Min Temperature 20 °F 31 °F 14 °F (2002)
Degree Days  
Heating Degree Days 31 23  
Month to date heating degree days 677 612  
Since 1 July heating degree days 4807 4819  
Cooling Degree Days 0 0  
Month to date cooling degree days 0 0  
Year to date cooling degree days 0 0  
Moisture  
Dew Point 21 °F    
Average Humidity 61    
Maximum Humidity 84    
Minimum Humidity 37    
Precipitation  
Precipitation 0.00 in 0.10 in - ()
Month to date precipitation 1.29 2.21  
Year to date precipitation 4.45 7.17  
Sea Level Pressure  
Sea Level Pressure 30.05 in    
Wind  
Wind Speed 4 mph (NNW)    
Max Wind Speed 14 mph    
Max Gust Speed 21 mph    
Visibility 9 miles    
Events      
T = Trace of Precipitation, MM = Missing Value Source: NWS Daily Summary

Daily Weather History Graph

Daily Weather History Graph

Search for Another Location

Airport or City:

Trip Planner

Search our weather history database for the weather conditions in past years. The results will help you decide how hot, cold, wet, or windy it might be!

Date:

Astronomy

Mar. 23, 2013 Rise Set
Actual Time 7:23 AM EDT 7:41 PM EDT
Civil Twilight 6:56 AM EDT 8:08 PM EDT
Nautical Twilight 6:24 AM EDT 8:40 PM EDT
Astronomical Twilight 5:51 AM EDT 9:13 PM EDT
Moon 4:05 PM EDT (3/23) 5:00 AM EDT (3/23)
Length of Visible Light 13h 11m
Length of Day
12h 17m
Waxing Gibbous, 85% of the Moon is Illuminated
Mar 23
Waxing Gibbous
Mar 27
Full
Apr 3
Last Quarter
Apr 10
New
Apr 18
First Quarter

Hourly Weather History & Observations

Time (EDT) Temp. Windchill Dew Point Humidity Pressure Visibility Wind Dir Wind Speed Gust Speed Precip Events Conditions
12:53 AM 25.0 °F - 19.0 °F 78% 30.04 in 10.0 mi Calm Calm - N/A   Clear
1:53 AM 24.1 °F - 19.0 °F 81% 30.05 in 10.0 mi Calm Calm - N/A   Clear
2:53 AM 24.1 °F - 19.0 °F 81% 30.04 in 10.0 mi Calm Calm - N/A   Clear
3:53 AM 23.0 °F - 18.0 °F 81% 30.03 in 10.0 mi Calm Calm - N/A   Clear
4:53 AM 21.9 °F - 17.1 °F 82% 30.03 in 9.0 mi Calm Calm - N/A   Clear
5:53 AM 21.0 °F - 17.1 °F 85% 30.03 in 9.0 mi Calm Calm - N/A   Clear
6:53 AM 19.9 °F - 16.0 °F 85% 30.04 in 8.0 mi Calm Calm - N/A   Clear
7:53 AM 21.0 °F - 17.1 °F 85% 30.05 in 7.0 mi Calm Calm - N/A   Clear
8:53 AM 26.1 °F - 21.0 °F 81% 30.08 in 7.0 mi Calm Calm - N/A   Clear
9:53 AM 32.0 °F - 23.0 °F 69% 30.09 in 8.0 mi Calm Calm - N/A   Clear
10:53 AM 37.0 °F - 24.1 °F 59% 30.08 in 8.0 mi Calm Calm - N/A   Clear
11:53 AM 39.9 °F 34.5 °F 21.0 °F 47% 30.07 in 10.0 mi WNW 8.1 mph - N/A   Clear
12:53 PM 41.0 °F 34.3 °F 21.0 °F 45% 30.06 in 10.0 mi NW 11.5 mph 16.1 mph N/A   Clear
1:53 PM 43.0 °F 39.5 °F 21.9 °F 43% 30.06 in 10.0 mi Variable 5.8 mph 18.4 mph N/A   Clear
2:53 PM 44.1 °F 40.1 °F 21.0 °F 40% 30.04 in 10.0 mi WSW 6.9 mph - N/A   Clear
3:53 PM 46.0 °F 41.4 °F 21.0 °F 37% 30.03 in 10.0 mi NW 9.2 mph - N/A   Clear
4:53 PM 46.9 °F - 21.9 °F 37% 30.04 in 10.0 mi NW 6.9 mph - N/A   Clear
5:53 PM 46.0 °F 42.5 °F 21.9 °F 39% 30.04 in 10.0 mi North 6.9 mph - N/A   Clear
6:53 PM 44.1 °F 39.5 °F 21.9 °F 42% 30.02 in 10.0 mi North 8.1 mph - N/A   Clear
7:53 PM 41.0 °F 38.0 °F 21.9 °F 47% 30.04 in 10.0 mi North 4.6 mph - N/A   Clear
8:53 PM 37.0 °F 33.3 °F 21.9 °F 54% 30.04 in 10.0 mi NNE 4.6 mph - N/A   Clear
9:53 PM 36.0 °F 33.3 °F 23.0 °F 59% 30.06 in 10.0 mi NNE 3.5 mph - N/A   Clear
10:53 PM 34.0 °F 31.0 °F 21.9 °F 61% 30.05 in 10.0 mi North 3.5 mph - N/A   Clear
11:53 PM 33.1 °F 26.9 °F 21.9 °F 64% 30.01 in 10.0 mi NE 6.9 mph - N/A   Clear